Location: Coupvray
(48.8929°N, 2.7967°E)
Time: 10:09:45
(UTC+00:00)

Iridium 4 Rocket - Pass Details

Date: 14 July 2020
Orbit: 583 x 906 km, 86.9° (Epoch: 05 August)

Event Time Altitude Azimuth Distance (km) Brightness Sun altitude
Exits shadow 00:24:12 32° 164° (SSE) 1,425 4.4 -19.2°
Maximum altitude 00:26:50 69° 89° (E) 892 3.8 -19.1°
Drops below altitude 10° 00:32:07 10° 8° (N) 2,355 7.3 -19.0°
Sets 00:34:24 0° 6° (N) 3,239 8.4 -18.9°
